Location: Baili�vre
(50.0696°N, 4.2409°E)
Time: 03:26:23
(UTC+00:00)

Cosmos 1544 - Pass Details

Date: 08 August 2020
Orbit: 471 x 491 km, 82.5° (Epoch: 25 September)

Event Time Altitude Azimuth Distance (km) Brightness Sun altitude
Exits shadow 23:53:48 56° 3° (N) 587 3.7 -24.1°
Drops below altitude 10° 23:56:46 10° 9° (N) 1,686 6.9 -24.1°
Sets 23:58:53 0° 10° (N) 2,576 8.1 -24.1°
